User: anonymous   Login
Location: Unspecified
(0.0000°N, 0.0000°E)
Time: 18:24:44
(UTC+00:00)
Language:

Hispasat 36W-1 - Orbit

View from above orbital plane
View from above orbital plane
View from above satellite
View from above satellite

Ground track
Ground track

The orbit is defined by the following mean orbital elements,

1 41942U          26145.43402676 +.00000000 +00000-0 +00000-0 0 00003
2 41942   0.0020 227.5236 0001013 197.2725 298.4838  1.00274474    00
Epoch (UTC): 25 May 2026 10:24:59
Eccentricity: 0.0001013
inclination: 0.0020°
perigee height: 35782 km
apogee height: 35790 km
right ascension of ascending node: 227.5236°
argument of perigee: 197.2725°
revolutions per day: 1.00274474
mean anomaly at epoch: 298.4838°

The dashed part of the orbit path shows where the satellite is in the earth's shadow,  

DLR